User: anonymous
Location: Blue Mountain Vista Observatory
(40.6992°N, 75.9422°W)
Time: 05:25:53
(UTC-04:00)
Language:

CZ-4C R/B - Orbit

View from above orbital plane
View from above orbital plane
View from above satellite
View from above satellite

Ground track
Ground track

The orbit data is extracted from the following two-line orbital elements,

1 36416U 10009D   14232.35396064 -.00000056  00000-0  34375-4 0  7365
2 36416 063.4494 148.3844 0286254 000.3027 359.8133 13.69421269223061
Epoch (UTC): 20 August 2014 08:29:42
Eccentricity: 0.0286254
inclination: 63.4494°
perigee height: 790 km
apogee height: 1213 km
right ascension of ascending node: 148.3844°
argument of perigee: 0.3027°
revolutions per day: 13.69421269
mean anomaly at epoch: 359.8133°
orbit number at epoch: 22306

The dashed part of the orbit path shows where the satellite is in the earth's shadow,  

DLR